This demonstration page uses our WeatherBlox Daily Observations layout. Learn more.

36.17497, -115.13722

Hourly Observations for November 21, 2019

Temp ( °F °C ) Dew Point ( °F °C ) Humidity (%) Winds ( mph kmh ) Pressure ( in mb ) Visibility ( mi km ) Precip ( " mm )
12:09 am 00:09 Cloudy 45 7.2 43 6.1 93 93 E 6 9 29.77 1008 10 16.0934 0.001 0.001
12:53 am 00:53 Cloudy 45 7.2 42 5.6 90 90 E 3 6 29.79 1009 10 16.0934 0.001 0.001
1:53 am 01:53 Cloudy 45 7.2 42 5.6 90 90 E 6 9 29.8 1009 10 16.0934 0 0
2:53 am 02:53 Cloudy 46 7.8 42 5.6 86 86 E 7 11 29.81 1010 10 16.0934 0 0
3:53 am 03:53 Cloudy 46 7.8 43 6.1 89 89 NE 5 7 29.83 1010 10 16.0934 0 0
4:53 am 04:53 Cloudy with Light Rain 46 7.8 43 6.1 89 89 E 5 7 29.84 1011 10 16.0934 0.001 0.001
5:53 am 05:53 Cloudy with Light Rain 44 6.7 41 5 89 89 Calm 29.87 1012 10 16.0934 0.001 0.001
6:53 am 06:53 Cloudy 46 7.8 42 5.6 86 86 NW 3 6 29.89 1012 10 16.0934 0.01 0.254
7:53 am 07:53 Cloudy 47 8.3 42 5.6 83 83 WNW 3 6 29.91 1013 10 16.0934 0 0
8:24 am 08:24 Cloudy 47 8.3 41 5 80 80 Calm 29.89 1012 10 16.0934 0 0
8:53 am 08:53 Cloudy 48 8.9 41 5 77 77 Calm 29.93 1014 10 16.0934 0 0
9:53 am 09:53 Mostly Cloudy 49 9.4 41 5 74 74 Calm 29.95 1014 10 16.0934 0 0
10:53 am 10:53 Cloudy 49 9.4 40 4.4 71 71 Calm 29.95 1014 10 16.0934 0 0
11:53 am 11:53 Cloudy 50 10 40 4.4 68 68 ESE 5 7 29.94 1014 10 16.0934 0 0
12:53 pm 12:53 Mostly Sunny 51 10.6 42 5.6 71 71 E 8 13 29.95 1014 10 16.0934 0 0
1:53 pm 13:53 Mostly Cloudy 50 10 42 5.6 74 74 NE 8 13 29.96 1015 10 16.0934 0 0
2:53 pm 14:53 Partly Cloudy 51 10.6 43 6.1 74 74 E 5 7 29.98 1015 10 16.0934 0 0
3:53 pm 15:53 Mostly Sunny 51 10.6 42 5.6 71 71 E 5 7 30 1016 10 16.0934 0 0
4:53 pm 16:53 Clear 50 10 42 5.6 74 74 Calm 30.01 1016 10 16.0934 0 0
5:53 pm 17:53 Clear 50 10 42 5.6 74 74 Calm 30.05 1018 10 16.0934 0 0
6:53 pm 18:53 Clear 49 9.4 43 6.1 80 80 Calm 30.07 1018 10 16.0934 0 0
7:53 pm 19:53 Clear 47 8.3 42 5.6 83 83 Calm 30.09 1019 10 16.0934 0 0
8:53 pm 20:53 Clear 46 7.8 42 5.6 86 86 NW 3 6 30.12 1020 10 16.0934 0 0
9:53 pm 21:53 Clear 45 7.2 42 5.6 90 90 Calm 30.15 1021 10 16.0934 0 0
10:53 pm 22:53 Clear 45 7.2 41 5 86 86 W 5 7 30.16 1021 10 16.0934 0 0
11:53 pm 23:53 Clear 44 6.7 41 5 89 89 NW 3 6 30.18 1022 8 12.87472 0 0

Powered by AerisWeather